^^
Mint Hill Weather Station Historical Data
 
Daily Summary for October 31, 2014 Units:  English    Metric   Both
« Previous Day
Next Day »
Daily Weekly Monthly Yearly Custom
  Current: High: Low: Average:
Temperature: 42.3 °F 45.9 °F 42.3 °F 43.7 °F
Dew Point: 39.0 °F 40.9 °F 39.0 °F 39.6 °F
Humidity: 88% 88% 82% 86%
Wind Speed: 0.0mph 0.2mph 0.0mph 0mph
Wind Gust: 0.0mph 2.3mph - -
WindCalm - - NNE
Pressure: 29.94 in 29.96 in 29.94 in -
Precipitation: 0.00 in      
Historical Graphs
 
 
Tabular Data for October 31, 2014
Time Temperature Dew Point Pressure Wind Wind Speed Wind Gust Humidity Rainfall Rate (Hourly) solar Conditions
00:00 45.9 °F 40.7 °F 29.96 in Calm     82% 0.00 in 0.0 W/m2 CLR
00:05 45.8 °F 40.9 °F 29.96 in Calm     83% 0.00 in 0.0 W/m2 CLR
00:10 45.7 °F 40.5 °F 29.96 in Calm     82% 0.00 in 0.0 W/m2 CLR
00:15 45.6 °F 40.7 °F 29.96 in Calm     83% 0.00 in 0.0 W/m2 CLR
00:20 45.5 °F 40.6 °F 29.96 in Calm     83% 0.00 in 0.0 W/m2 CLR
00:25 45.5 °F 40.6 °F 29.96 in Calm     83% 0.00 in 0.0 W/m2 CLR
00:30 45.4 °F 40.5 °F 29.96 in Calm     83% 0.00 in 0.0 W/m2 CLR
00:35 45.4 °F 40.5 °F 29.96 in Calm     83% 0.00 in 0.0 W/m2 CLR
00:40 45.3 °F 40.4 °F 29.96 in Calm     83% 0.00 in 0.0 W/m2 CLR
00:45 45.2 °F 40.3 °F 29.96 in Calm     83% 0.00 in 0.0 W/m2 CLR
00:50 45.1 °F 40.2 °F 29.95 in Calm     83% 0.00 in 0.0 W/m2 CLR
00:55 45.1 °F 40.2 °F 29.95 in Calm     83% 0.00 in 0.0 W/m2 CLR
01:00 45.0 °F 40.5 °F 29.95 in Calm     84% 0.00 in 0.0 W/m2 CLR
01:05 44.9 °F 40.0 °F 29.95 in Calm     83% 0.00 in 0.0 W/m2 CLR
01:10 44.8 °F 40.3 °F 29.96 in Calm     84% 0.00 in 0.0 W/m2 CLR
01:15 44.5 °F 40.3 °F 29.96 in Calm     85% 0.00 in 0.0 W/m2 CLR
01:20 44.3 °F 40.1 °F 29.96 in Calm     85% 0.00 in 0.0 W/m2 CLR
01:25 44.3 °F 40.1 °F 29.96 in Calm     85% 0.00 in 0.0 W/m2 CLR
01:30 44.2 °F 40.0 °F 29.96 in Calm     85% 0.00 in 0.0 W/m2 CLR
01:35 44.1 °F 39.9 °F 29.95 in Calm     85% 0.00 in 0.0 W/m2 CLR
01:40 44.0 °F 39.8 °F 29.95 in Calm     85% 0.00 in 0.0 W/m2 CLR
01:46 43.9 °F 39.7 °F 29.95 in Calm     85% 0.00 in 0.0 W/m2 CLR
01:51 43.8 °F 39.3 °F 29.95 in Calm     84% 0.00 in 0.0 W/m2 CLR
01:56 43.7 °F 39.5 °F 29.95 in Calm     85% 0.00 in 0.0 W/m2 CLR
02:01 43.7 °F 39.5 °F 29.95 in Calm     85% 0.00 in 0.0 W/m2 CLR
02:06 43.6 °F 39.7 °F 29.95 in Calm     86% 0.00 in 0.0 W/m2 CLR
02:11 43.6 °F 39.4 °F 29.95 in Calm     85% 0.00 in 0.0 W/m2 CLR
02:16 43.5 °F 39.3 °F 29.95 in Calm     85% 0.00 in 0.0 W/m2 CLR
02:21 43.4 °F 39.2 °F 29.95 in Calm     85% 0.00 in 0.0 W/m2 CLR
02:26 43.4 °F 39.2 °F 29.95 in Calm     85% 0.00 in 0.0 W/m2 CLR
02:31 43.4 °F 39.2 °F 29.95 in Calm     85% 0.00 in 0.0 W/m2 CLR
02:36 43.3 °F 39.1 °F 29.94 in Calm     85% 0.00 in 0.0 W/m2 CLR
02:41 43.2 °F 39.3 °F 29.94 in Calm     86% 0.00 in 0.0 W/m2 CLR
02:46 43.1 °F 39.2 °F 29.95 in Calm     86% 0.00 in 0.0 W/m2 CLR
02:51 43.1 °F 39.2 °F 29.94 in Calm     86% 0.00 in 0.0 W/m2 CLR
02:56 43.0 °F 39.1 °F 29.94 in Calm     86% 0.00 in 0.0 W/m2 CLR
03:01 43.0 °F 39.4 °F 29.94 in Calm     87% 0.00 in 0.0 W/m2 CLR
03:06 42.9 °F 39.3 °F 29.94 in Calm     87% 0.00 in 0.0 W/m2 CLR
03:11 42.9 °F 39.3 °F 29.94 in Calm     87% 0.00 in 0.0 W/m2 CLR
03:16 42.8 °F 39.2 °F 29.94 in Calm     87% 0.00 in 0.0 W/m2 CLR
03:21 42.8 °F 39.5 °F 29.95 in Calm     88% 0.00 in 0.0 W/m2 CLR
03:26 42.7 °F 39.4 °F 29.95 in NNE 0.1 mph 1.1 mph 88% 0.00 in 0.0 W/m2 CLR
03:31 42.6 °F 39.3 °F 29.94 in Calm     88% 0.00 in 0.0 W/m2 CLR
03:36 42.6 °F 39.3 °F 29.94 in Calm     88% 0.00 in 0.0 W/m2 CLR
03:41 42.5 °F 39.2 °F 29.94 in Calm     88% 0.00 in 0.0 W/m2 CLR
03:46 42.5 °F 39.2 °F 29.94 in Calm     88% 0.00 in 0.0 W/m2 CLR
03:51 42.5 °F 39.2 °F 29.94 in NNE 0.2 mph 2.3 mph 88% 0.00 in 0.0 W/m2 CLR
03:56 42.4 °F 39.1 °F 29.94 in Calm     88% 0.00 in 0.0 W/m2 CLR
04:01 42.4 °F 39.1 °F 29.94 in Calm     88% 0.00 in 0.0 W/m2 CLR
04:06 42.4 °F 39.1 °F 29.94 in Calm     88% 0.00 in 0.0 W/m2 CLR
04:11 42.4 °F 39.1 °F 29.94 in Calm     88% 0.00 in 0.0 W/m2 CLR
04:16 42.4 °F 39.1 °F 29.94 in Calm     88% 0.00 in 0.0 W/m2 CLR
04:21 42.5 °F 39.2 °F 29.94 in Calm     88% 0.00 in 0.0 W/m2 CLR
04:26 42.5 °F 39.2 °F 29.94 in Calm     88% 0.00 in 0.0 W/m2 CLR
04:31 42.4 °F 39.1 °F 29.94 in Calm     88% 0.00 in 0.0 W/m2 CLR
04:36 42.4 °F 39.1 °F 29.94 in Calm     88% 0.00 in 0.0 W/m2 CLR
04:41 42.4 °F 39.1 °F 29.94 in NNE 0.1 mph   88% 0.00 in 0.0 W/m2 CLR
04:46 42.4 °F 39.1 °F 29.94 in Calm     88% 0.00 in 0.0 W/m2 CLR
04:51 42.3 °F 39.0 °F 29.94 in Calm     88% 0.00 in 0.0 W/m2 CLR
Mint Hill, North Carolina, USA
Compliments of Weather Underground